DB0LC-2 Weather Reports


time (UTC)temp
C
wind
direction
speed
KPH
gust
KPH
rain 1hr
cm
rain 24hr
cm
rain mn
cm
humidity
%
barometer
mb
20260506232957 18 0 0.0 0.0 0.00 0.00 0.00 32 907.9
20260506231918 20 0 0.0 0.0 0.00 0.00 0.00 33 907.7
20260506230909 20 0 0.0 0.0 0.00 0.00 0.00 33 907.6
20260506230907 20 0 0.0 0.0 0.00 0.00 0.00 33 907.7
20260506225840 19 0 0.0 0.0 0.00 0.00 0.00 33 907.6
20260506224831 19 0 0.0 0.0 0.00 0.00 0.00 33 907.6
20260506223808 18 0 0.0 0.0 0.00 0.00 0.00 33 907.6
20260506222726 20 0 0.0 0.0 0.00 0.00 0.00 31 907.6
20260506221700 20 0 0.0 0.0 0.00 0.00 0.00 32 907.6
20260506220639 20 0 0.0 0.0 0.00 0.00 0.00 33 907.5
20260506215637 19 0 0.0 0.0 0.00 0.00 0.00 33 907.6
20260506213553 20 0 0.0 0.0 0.00 0.00 0.00 31 907.4
20260506212523 20 0 0.0 0.0 0.00 0.00 0.00 33 907.6
20260506211435 20 0 0.0 0.0 0.00 0.00 0.00 33 907.5
20260506210411 19 0 0.0 0.0 0.00 0.00 0.00 33 907.3
20260506205331 19 0 0.0 0.0 0.00 0.00 0.00 33 907.3
20260506204321 20 0 0.0 0.0 0.00 0.00 0.00 30 907.3
20260506203320 20 0 0.0 0.0 0.00 0.00 0.00 33 907.3
20260506203318 20 0 0.0 0.0 0.00 0.00 0.00 33 907.2
20260506202242 20 0 0.0 0.0 0.00 0.00 0.00 33 907.2
20260506201212 19 0 0.0 0.0 0.00 0.00 0.00 33 907.2
20260506200142 19 0 0.0 0.0 0.00 0.00 0.00 34 907.2
20260506195140 19 0 0.0 0.0 0.00 0.00 0.00 30 907.1
20260506194144 20 0 0.0 0.0 0.00 0.00 0.00 33 907.0
20260506193128 20 0 0.0 0.0 0.00 0.00 0.00 33 907.0
20260506192117 19 0 0.0 0.0 0.00 0.00 0.00 33 906.8
20260506191052 19 0 0.0 0.0 0.00 0.00 0.00 33 906.7
20260506190030 19 0 0.0 0.0 0.00 0.00 0.00 32 906.5
20260506183943 20 0 0.0 0.0 0.00 0.00 0.00 33 906.3
20260506182913 19 0 0.0 0.0 0.00 0.00 0.00 33 906.3
20260506181815 18 0 0.0 0.0 0.00 0.00 0.00 33 906.0
20260506180748 20 0 0.0 0.0 0.00 0.00 0.00 32 905.9
20260506175724 20 0 0.0 0.0 0.00 0.00 0.00 33 906.1
20260506174723 19 0 0.0 0.0 0.00 0.00 0.00 33 906.0
20260506173659 19 0 0.0 0.0 0.00 0.00 0.00 33 905.7
20260506172647 19 0 0.0 0.0 0.00 0.00 0.00 32 905.8
20260506170558 20 0 0.0 0.0 0.00 0.00 0.00 33 905.7
20260506165520 19 0 0.0 0.0 0.00 0.00 0.00 33 905.6
20260506164443 19 0 0.0 0.0 0.00 0.00 0.00 33 905.7
20260506163357 19 0 0.0 0.0 0.00 0.00 0.00 32 905.7
20260506162329 20 0 0.0 0.0 0.00 0.00 0.00 33 905.2
20260506161251 19 0 0.0 0.0 0.00 0.00 0.00 33 905.5
20260506160226 19 0 0.0 0.0 0.00 0.00 0.00 34 905.3
20260506155140 19 0 0.0 0.0 0.00 0.00 0.00 32 905.5
20260506153126 20 0 0.0 0.0 0.00 0.00 0.00 33 905.1
20260506152038 19 0 0.0 0.0 0.00 0.00 0.00 33 904.8
20260506150949 19 0 0.0 0.0 0.00 0.00 0.00 33 904.9
20260506145858 20 0 0.0 0.0 0.00 0.00 0.00 33 905.0
20260506144823 20 0 0.0 0.0 0.00 0.00 0.00 33 904.5
20260506141734 19 0 0.0 0.0 0.00 0.00 0.00 33 904.5
20260506141732 19 0 0.0 0.0 0.00 0.00 0.00 33 904.4
20260506140706 19 0 0.0 0.0 0.00 0.00 0.00 32 904.4
20260506135632 20 0 0.0 0.0 0.00 0.00 0.00 32 903.8
20260506134605 20 0 0.0 0.0 0.00 0.00 0.00 32 903.4
20260506133527 19 0 0.0 0.0 0.00 0.00 0.00 33 903.3
20260506132515 19 0 0.0 0.0 0.00 0.00 0.00 33 903.3
20260506131516 19 0 0.0 0.0 0.00 0.00 0.00 31 903.4
20260506130458 20 0 0.0 0.0 0.00 0.00 0.00 32 903.3
20260506124430 19 0 0.0 0.0 0.00 0.00 0.00 33 903.2
20260506123426 19 0 0.0 0.0 0.00 0.00 0.00 31 903.4
20260506121402 20 0 0.0 0.0 0.00 0.00 0.00 32 903.4
20260506120410 19 0 0.0 0.0 0.00 0.00 0.00 32 903.4
20260506115350 19 0 0.0 0.0 0.00 0.00 0.00 32 903.4
20260506114353 20 0 0.0 0.0 0.00 0.00 0.00 31 903.0
20260506113338 20 0 0.0 0.0 0.00 0.00 0.00 32 902.9
20260506112339 19 0 0.0 0.0 0.00 0.00 0.00 32 902.8
20260506111317 19 0 0.0 0.0 0.00 0.00 0.00 33 903.0
20260506105252 20 0 0.0 0.0 0.00 0.00 0.00 32 903.1
20260506104230 20 0 0.0 0.0 0.00 0.00 0.00 32 903.3
20260506103200 19 0 0.0 0.0 0.00 0.00 0.00 32 903.3
20260506102148 19 0 0.0 0.0 0.00 0.00 0.00 32 903.5
20260506101139 18 0 0.0 0.0 0.00 0.00 0.00 32 903.5
20260506100136 20 0 0.0 0.0 0.00 0.00 0.00 32 903.3
20260506095137 19 0 0.0 0.0 0.00 0.00 0.00 32 903.3
20260506094137 19 0 0.0 0.0 0.00 0.00 0.00 32 903.4
20260506091100 19 0 0.0 0.0 0.00 0.00 0.00 32 903.3
20260506091059 19 0 0.0 0.0 0.00 0.00 0.00 32 903.4
20260506090035 19 0 0.0 0.0 0.00 0.00 0.00 32 903.5
20260506085010 19 0 0.0 0.0 0.00 0.00 0.00 31 903.5
20260506083959 20 0 0.0 0.0 0.00 0.00 0.00 32 903.6
20260506081858 19 0 0.0 0.0 0.00 0.00 0.00 32 903.8
20260506080825 19 0 0.0 0.0 0.00 0.00 0.00 32 903.7
20260506072730 19 0 0.0 0.0 0.00 0.00 0.00 32 903.6
20260506070654 19 0 0.0 0.0 0.00 0.00 0.00 30 903.6
20260506060456 20 0 0.0 0.0 0.00 0.00 0.00 32 903.8
20260506051303 20 0 0.0 0.0 0.00 0.00 0.00 32 903.9
20260506050244 19 0 0.0 0.0 0.00 0.00 0.00 32 903.9
20260506044128 18 0 0.0 0.0 0.00 0.00 0.00 32 904.0
20260506043113 20 0 0.0 0.0 0.00 0.00 0.00 31 904.0
20260506042022 20 0 0.0 0.0 0.00 0.00 0.00 32 904.2
20260506040947 19 0 0.0 0.0 0.00 0.00 0.00 32 904.3
20260506035921 18 0 0.0 0.0 0.00 0.00 0.00 32 904.3
20260506034845 19 0 0.0 0.0 0.00 0.00 0.00 30 904.4
20260506033820 20 0 0.0 0.0 0.00 0.00 0.00 32 904.6
20260506032811 19 0 0.0 0.0 0.00 0.00 0.00 32 904.7
20260506031756 19 0 0.0 0.0 0.00 0.00 0.00 32 904.7
20260506030722 19 0 0.0 0.0 0.00 0.00 0.00 32 904.9
20260506025650 20 0 0.0 0.0 0.00 0.00 0.00 32 905.0
20260506024618 20 0 0.0 0.0 0.00 0.00 0.00 32 905.2
20260506022558 19 0 0.0 0.0 0.00 0.00 0.00 32 905.2
20260506022555 19 0 0.0 0.0 0.00 0.00 0.00 32 905.2
20260506021505 19 0 0.0 0.0 0.00 0.00 0.00 30 905.4
20260506020429 20 0 0.0 0.0 0.00 0.00 0.00 32 905.4
20260506015353 20 0 0.0 0.0 0.00 0.00 0.00 32 905.5
20260506013251 18 0 0.0 0.0 0.00 0.00 0.00 32 905.8
20260506012231 19 0 0.0 0.0 0.00 0.00 0.00 29 905.6
20260506012229 19 0 0.0 0.0 0.00 0.00 0.00 29 905.7
20260506011215 20 0 0.0 0.0 0.00 0.00 0.00 32 905.6
20260506010113 19 0 0.0 0.0 0.00 0.00 0.00 32 905.7
20260506005049 19 0 0.0 0.0 0.00 0.00 0.00 33 905.6
20260506004013 19 0 0.0 0.0 0.00 0.00 0.00 32 905.9
20260506003001 20 0 0.0 0.0 0.00 0.00 0.00 32 906.1
20260506001950 20 0 0.0 0.0 0.00 0.00 0.00 32 906.2
20260506000847 19 0 0.0 0.0 0.00 0.00 0.00 33 906.0
20260505235835 18 0 0.0 0.0 0.00 0.00 0.00 33 906.0
20260505234746 20 0 0.0 0.0 0.00 0.00 0.00 31 906.1
20260505233733 20 0 0.0 0.0 0.00 0.00 0.00 32 906.3